Date String (YYYY-MM-DD hh:mm:ss) UTC,Instrument flags,absolute air pressure of the measurement (hPa),sample flow rate (lpm),inlet stack bypass flow (lpm),air temperature of the measurement (°C),ambient temperature measured by the external sensor (°C),aerosol sample conditioner tube jacket temperature (°C),OPC LED temperature (°C),internal box temperature (°C),relative humidity of the measurement (%),span deviation,mass concentration of particles derived from Lorenz-Mie calculation of OPC scattering (μg/m³),mass concentration of particles derived from Lorenz-Mie calculation of OPC scattering (μg/m³),mass concentration of particles derived from Lorenz-Mie calculation of OPC scattering (μg/m³)
DateTimeUTC,F1_M11,P_M11,Q1_M11,Q2_M11,T1_M11,T2_M11,T3_M11,T4_M11,T5_M11,U1_M11,ZSPAN_M11,X2_M11,X0_M11,X1_M11
2023-10-10 17:00:00,SystemResetWarning,0823.6,4.99,000.00,028.7,026.9,000.0,037.1,030.5,10.4,0000.0,0003.22,0009.74,0002.51
2023-10-10 17:01:00,SystemResetWarning,0823.5,4.99,000.00,028.7,025.3,000.0,037.0,030.3,10.1,0000.0,0003.22,0009.72,0002.47
2023-10-10 17:02:00,SystemResetWarning,0823.4,5.01,000.00,028.6,024.8,000.0,036.9,030.2,10.7,0000.0,0003.16,0009.65,0002.41
2023-10-10 17:03:00,SystemResetWarning,0823.5,5.01,000.00,028.5,025.1,000.0,036.9,030.1,10.9,0000.0,0003.13,0009.09,0002.36
2023-10-10 17:04:00,SystemResetWarning,0823.4,4.99,000.00,028.5,025.4,000.0,037.0,030.0,11.3,0000.0,0003.11,0008.91,0002.33
2023-10-10 17:05:00,SystemResetWarning,0823.4,5.00,000.00,028.5,025.8,000.0,037.0,030.0,11.6,0000.0,0003.09,0008.18,0002.27
2023-10-10 17:06:00,SystemResetWarning,0823.4,5.00,000.00,028.5,026.2,000.0,037.0,030.1,11.3,0000.0,0002.97,0007.99,0002.18
2023-10-10 17:07:00,SystemResetWarning,0823.4,5.01,000.00,028.5,026.5,000.0,037.0,030.2,11.0,0000.0,0002.89,0007.88,0002.11
2023-10-10 17:08:00,SystemResetWarning,0823.4,5.00,000.00,028.5,026.8,000.0,037.0,030.2,11.0,0000.0,0002.85,0007.91,0002.06
2023-10-10 17:09:00,SystemResetWarning,0823.4,5.00,000.00,028.5,027.0,000.0,037.0,030.3,10.7,0000.0,0002.79,0007.79,0002.02
2023-10-10 17:10:00,SystemResetWarning,0823.4,5.00,000.00,028.6,027.2,000.0,037.0,030.4,10.6,0000.0,0002.79,0007.83,0001.98
2023-10-10 17:11:00,SystemResetWarning,0823.4,5.00,000.00,028.6,027.4,000.0,037.0,030.4,10.4,0000.0,0002.85,0008.02,0001.98
2023-10-10 17:12:00,SystemResetWarning,0823.3,5.00,000.00,028.7,027.5,000.0,037.1,030.5,10.1,0000.0,0002.84,0007.49,0001.96
2023-10-10 17:13:00,SystemResetWarning,0823.3,5.01,000.00,028.7,027.4,000.0,037.1,030.6,10.4,0000.0,0002.78,0006.38,0001.95
2023-10-10 17:14:00,SystemResetWarning,0823.3,4.99,000.00,028.7,025.8,000.0,037.0,030.4,10.5,0000.0,0002.75,0005.61,0001.94
2023-10-10 17:15:00,SystemResetWarning,0823.2,5.02,000.00,028.6,024.7,000.0,036.9,030.2,10.4,0000.0,0002.70,0005.84,0001.92
2023-10-10 17:16:00,SystemResetWarning,0823.1,5.00,000.00,028.6,025.0,000.0,036.9,030.2,10.6,0000.0,0002.69,0005.97,0001.94
2023-10-10 17:17:00,SystemResetWarning,0823.1,5.00,000.00,028.5,025.3,000.0,036.9,030.0,10.5,0000.0,0002.65,0005.74,0001.96
2023-10-10 17:18:00,SystemResetWarning,0823.1,5.01,000.00,028.5,025.7,000.0,037.0,030.1,10.0,0000.0,0002.66,0005.79,0001.98
2023-10-10 17:19:00,SystemResetWarning,0823.1,5.00,000.00,028.5,026.0,000.0,037.0,030.1,10.4,0000.0,0002.77,0006.27,0002.02
2023-10-10 17:20:00,SystemResetWarning,0823.1,5.00,000.00,028.5,026.4,000.0,037.0,030.2,10.3,0000.0,0002.79,0006.84,0002.02
2023-10-10 17:21:00,SystemResetWarning,0823.1,5.01,000.00,028.5,026.7,000.0,037.0,030.2,10.3,0000.0,0002.78,0007.53,0002.01
2023-10-10 17:22:00,SystemResetWarning,0823.1,5.00,000.00,028.5,026.9,000.0,037.0,030.3,10.2,0000.0,0002.72,0007.41,0001.98
2023-10-10 17:23:00,SystemResetWarning,0823.1,4.99,000.00,028.6,027.1,000.0,037.0,030.4,10.0,0000.0,0002.60,0007.11,0001.95
2023-10-10 17:24:00,SystemResetWarning,0823.1,4.99,000.00,028.6,027.3,000.0,037.0,030.4,10.0,0000.0,0002.55,0007.04,0001.92
2023-10-10 17:25:00,SystemResetWarning,0823.1,5.00,000.00,028.6,027.3,000.0,037.0,030.5,9.8,0000.0,0002.52,0007.13,0001.88
2023-10-10 17:26:00,SystemResetWarning,0823.1,5.00,000.00,028.6,026.1,000.0,037.0,030.4,9.5,0000.0,0002.46,0006.99,0001.85
2023-10-10 17:27:00,SystemResetWarning,0823.1,5.00,000.00,028.6,024.7,000.0,036.9,030.2,9.7,0000.0,0002.47,0007.02,0001.83
2023-10-10 17:28:00,SystemResetWarning,0823.1,5.02,000.00,028.5,024.8,000.0,036.9,030.1,9.7,0000.0,0002.47,0007.06,0001.81
2023-10-10 17:29:00,SystemResetWarning,0823.0,5.00,000.00,028.4,025.1,000.0,036.9,030.0,9.7,0000.0,0002.46,0007.06,0001.79
2023-10-10 17:30:00,SystemResetWarning,0823.1,4.99,000.00,028.4,025.5,000.0,036.9,030.0,9.6,0000.0,0002.37,0006.66,0001.75
2023-10-10 17:31:00,SystemResetWarning,0823.0,5.01,000.00,028.4,025.9,000.0,036.9,030.0,10.0,0000.0,0002.25,0005.95,0001.71
2023-10-10 17:32:00,SystemResetWarning,0823.0,5.00,000.00,028.4,026.2,000.0,036.9,030.1,9.8,0000.0,0002.24,0004.84,0001.70
2023-10-10 17:33:00,SystemResetWarning,0823.0,4.99,000.00,028.4,026.6,000.0,036.9,030.2,9.8,0000.0,0002.21,0004.67,0001.70
2023-10-10 17:34:00,SystemResetWarning,0823.0,5.00,000.00,028.5,026.8,000.0,036.9,030.2,9.8,0000.0,0002.23,0004.68,0001.71
2023-10-10 17:35:00,SystemResetWarning,0823.0,4.99,000.00,028.5,027.0,000.0,036.9,030.3,9.6,0000.0,0002.25,0004.71,0001.73
2023-10-10 17:36:00,SystemResetWarning,0823.0,5.00,000.00,028.5,027.2,000.0,037.0,030.4,9.4,0000.0,0002.31,0005.51,0001.76
2023-10-10 17:37:00,SystemResetWarning,0823.0,5.01,000.00,028.6,027.4,000.0,037.0,030.5,9.5,0000.0,0002.36,0006.35,0001.79
2023-10-10 17:38:00,SystemResetWarning,0823.0,4.99,000.00,028.6,027.3,000.0,037.0,030.5,9.7,0000.0,0002.39,0006.26,0001.82
2023-10-10 17:39:00,SystemResetWarning,0823.0,4.97,000.00,028.6,025.8,000.0,036.9,030.4,9.7,0000.0,0002.39,0006.12,0001.84
2023-10-10 17:40:00,SystemResetWarning,0822.9,5.02,000.00,028.5,024.7,000.0,036.9,030.2,9.7,0000.0,0002.44,0006.31,0001.87
2023-10-10 17:41:00,SystemResetWarning,0822.9,5.01,000.00,028.5,024.9,000.0,036.9,030.1,9.7,0000.0,0002.47,0006.42,0001.90
2023-10-10 17:42:00,SystemResetWarning,0822.9,5.00,000.00,028.4,025.2,000.0,036.9,029.9,9.7,0000.0,0002.53,0006.51,0001.93
2023-10-10 17:43:00,SystemResetWarning,0823.0,5.00,000.00,028.4,025.6,000.0,036.9,030.0,9.6,0000.0,0002.56,0006.99,0001.95
2023-10-10 17:44:00,SystemResetWarning,0823.0,5.00,000.00,028.4,026.0,000.0,036.9,030.0,9.6,0000.0,0002.65,0007.49,0001.98
2023-10-10 17:45:00,SystemResetWarning,0822.9,5.00,000.00,028.4,026.3,000.0,036.9,030.1,9.8,0000.0,0002.77,0008.22,0002.02
2023-10-10 17:46:00,SystemResetWarning,0822.9,5.01,000.00,028.4,026.6,000.0,036.9,030.2,9.5,0000.0,0002.80,0008.22,0002.03
2023-10-10 17:47:00,SystemResetWarning,0822.9,4.99,000.00,028.5,026.9,000.0,036.9,030.2,9.3,0000.0,0002.81,0008.14,0002.04
2023-10-10 17:48:00,SystemResetWarning,0822.9,4.99,000.00,028.5,027.1,000.0,036.9,030.3,9.5,0000.0,0002.84,0008.20,0002.05
2023-10-10 17:49:00,SystemResetWarning,0822.9,4.99,000.00,028.5,027.3,000.0,037.0,030.4,9.3,0000.0,0002.84,0008.15,0002.05
2023-10-10 17:50:00,SystemResetWarning,0823.0,5.01,000.00,028.6,027.4,000.0,037.0,030.5,9.3,0000.0,0002.84,0008.52,0002.05
2023-10-10 17:51:00,SystemResetWarning,0823.0,4.99,000.00,028.6,026.3,000.0,036.9,030.4,9.2,0000.0,0002.80,0008.39,0002.03
2023-10-10 17:52:00,SystemResetWarning,0823.0,5.01,000.00,028.5,024.8,000.0,036.9,030.2,9.4,0000.0,0002.81,0008.33,0002.01
2023-10-10 17:53:00,SystemResetWarning,0822.9,5.01,000.00,028.5,024.8,000.0,036.8,030.1,9.6,0000.0,0002.78,0008.48,0002.00
2023-10-10 17:54:00,SystemResetWarning,0822.9,5.00,000.00,028.4,025.1,000.0,036.8,030.0,9.8,0000.0,0002.74,0008.38,0002.00
2023-10-10 17:55:00,SystemResetWarning,0822.9,5.00,000.00,028.4,025.5,000.0,036.9,030.0,9.9,0000.0,0002.66,0008.12,0001.98
2023-10-10 17:56:00,SystemResetWarning,0822.9,5.00,000.00,028.4,025.9,000.0,036.9,030.1,9.7,0000.0,0002.58,0007.92,0001.96
2023-10-10 17:57:00,SystemResetWarning,0822.9,5.00,000.00,028.4,026.3,000.0,036.9,030.1,9.7,0000.0,0002.57,0007.91,0001.95
2023-10-10 17:58:00,SystemResetWarning,0822.8,5.00,000.00,028.4,026.6,000.0,036.9,030.2,9.7,0000.0,0002.54,0007.81,0001.95
2023-10-10 17:59:00,SystemResetWarning,0822.9,4.99,000.00,028.5,026.9,000.0,036.9,030.2,9.6,0000.0,0002.55,0007.60,0001.95
